This is the latest recevied weather packets stored in our database for station/object WC4PEM-11. If no packets are shown the sender has not sent any weather packets the latest 10 day(s).
| Time | Temp. | Humidity | Pressure | Rain* | Wind** | Luminosity | Snow |
|---|---|---|---|---|---|---|---|
| 1777572733 | 30.56° C | 55% | 1011.6 hPa | 0 mm | - | - | - |
| 1777572498 | 30.56° C | 54% | 1011.6 hPa | 0 mm | - | - | - |
| 1777572197 | 30.56° C | 55% | 1011.6 hPa | 0 mm | - | - | - |
| 1777572096 | 30.56° C | 54% | 1011.7 hPa | 0 mm | - | - | - |
| 1777571897 | 30.56° C | 54% | 1011.7 hPa | 0 mm | - | - | - |
| 1777571597 | 30.56° C | 52% | 1011.9 hPa | 0 mm | - | - | - |
| 1777571344 | 30.56° C | 52% | 1012 hPa | 0 mm | - | - | - |
| 1777571297 | 30.56° C | 52% | 1011.9 hPa | 0 mm | - | - | - |
| 1777570997 | 30.56° C | 52% | 1012 hPa | 0 mm | - | - | - |
| 1777570980 | 30.56° C | 54% | 1012.1 hPa | 0 mm | - | - | - |
| 1777570697 | 30.56° C | 54% | 1012.1 hPa | 0 mm | - | - | - |
| 1777570397 | 30° C | 53% | 1012.1 hPa | 0 mm | - | - | - |
| 1777570097 | 30° C | 52% | 1012.3 hPa | 0 mm | - | - | - |
| 1777569937 | 30° C | 54% | 1012.2 hPa | 0 mm | - | - | - |
| 1777569797 | 30° C | 54% | 1012.2 hPa | 0 mm | - | - | - |
| 1777569497 | 29.44° C | 53% | 1012 hPa | 0 mm | - | - | - |
| 1777569197 | 30° C | 54% | 1012 hPa | 0 mm | - | - | - |
| 1777569076 | 29.44° C | 54% | 1012.1 hPa | 0 mm | - | - | - |
| 1777568897 | 29.44° C | 54% | 1012.1 hPa | 0 mm | - | - | - |
| 1777568862 | 29.44° C | 57% | 1012.3 hPa | 0 mm | - | - | - |
| 1777568660 | 28.89° C | 57% | 1012.3 hPa | 0 mm | - | - | - |
| 1777568597 | 29.44° C | 57% | 1012.3 hPa | 0 mm | - | - | - |
| 1777568297 | 28.89° C | 57% | 1012.3 hPa | 0 mm | - | - | - |
| 1777568128 | 28.89° C | 59% | 1012.3 hPa | 0 mm | - | - | - |
| 1777567997 | 28.89° C | 59% | 1012.3 hPa | 0 mm | - | - | - |
* Rain latest hour (hover to see other rain measurements)
** Current wind speed in m/s (hover to see current wind gust speed)